Temperature
17 17 17 17 17 17 16 16 16 16 16 16 16 15 15 15 15 15 15 15 14 15 14 14 14 14 14 14 14 14 14 14 14 14 14 14 14 13 13 13 14 14 14
17 17 17 17 17 17 16 16 16 16 16 16 15 15 15 15 15 15 14 14 14 14 14 14 14 14 14 14 14 14 14 13 13 13 13 13 13 13 13 13 13 13 13
17 17 17 17 17 16 16 16 16 16 16 15 15 15 15 15 15 15 14 14 14 14 14 14 14 14 14 14 14 14 14 14 13 13 13 13 13 13 13 13 13 13 13
17 17 17 17 17 16 16 16 16 16 16 15 15 15 15 15 15 14 14 14 14 14 14 14 14 14 14 13 13 13 13 13 13 13 13 13 13 13 13 13 13 13 13
17 17 17 17 16 16 16 16 16 16 15 15 15 15 15 15 14 14 14 14 14 14 14 14 13 13 13 13 13 13 13 13 13 13 13 13 13 13 13 13 13 13 13
17 17 17 16 16 16 16 16 16 16 15 15 15 15 15 15 14 14 14 14 14 14 14 13 13 13 13 13 13 13 13 13 13 13 13 13 13 13 13 13 13 12 13
17 17 16 16 16 16 16 16 16 15 15 15 15 15 15 14 14 14 14 14 14 14 14 13 13 13 13 13 13 13 13 13 13 13 12 12 12 13 13 13 12 12 12
17 17 17 17 16 16 16 16 15 15 15 15 15 15 14 14 14 14 14 14 14 13 13 13 13 13 13 13 13 13 13 13 13 12 12 12 12 12 12 12 12 12 12
17 17 17 17 16 16 16 16 15 15 15 15 15 14 14 14 14 14 14 14 13 13 13 13 13 13 13 13 13 13 12 12 12 12 12 12 12 12 12 12 12 12 12
17 17 17 16 16 16 16 15 15 15 15 15 14 14 14 14 14 14 14 13 13 13 13 13 13 13 13 13 12 12 12 12 12 12 12 12 12 12 12 12 12 12 12
17 17 17 16 16 16 16 15 15 15 15 14 14 14 14 14 14 13 13 13 13 13 13 13 13 12 12 12 12 12 12 12 12 12 12 12 12 12 12 12 12 12 12
17 16 16 16 16 15 15 15 15 14 14 14 14 14 14 13 13 13 13 13 13 13 13 13 12 12 12 12 12 12 12 12 12 12 12 12 12 12 12 12 12 12 12
16 16 16 16 16 15 15 15 14 14 14 14 14 13 13 13 13 13 13 13 13 13 13 12 12 12 12 12 12 12 12 12 12 12 12 12 12 12 12 12 12 11 11
16 16 16 16 15 15 15 15 14 14 14 13 13 13 13 13 13 13 13 13 13 13 12 12 12 12 12 12 12 12 12 12 12 12 12 11 11 11 11 11 11 11 11
16 16 16 15 15 15 15 14 14 14 13 13 13 13 13 13 12 12 12 12 12 12 12 12 12 12 12 12 12 11 11 11 11 11 11 11 11 11 11 11 11 11 11
15 15 15 15 15 15 14 14 14 13 13 13 13 13 12 12 12 12 12 12 12 12 12 12 12 12 12 12 11 11 11 11 11 11 11 11 11 11 11 11 10 10 10
15 15 15 15 15 14 14 14 14 13 13 13 12 12 12 12 12 12 12 11 11 11 11 11 11 11 11 11 11 11 11 11 11 11 11 11 11 11 11 10 10 10 10
15 15 15 14 14 14 14 14 13 13 12 12 12 12 12 12 11 11 11 11 11 11 11 11 11 11 11 11 10 10 10 10 10 10 10 10 10 10 10 10 10 10 10
15 15 14 14 14 14 13 13 13 12 12 12 12 12 11 11 11 11 11 11 10 10 10 10 10 10 10 10 10 10 10 10 10 10 10 10 10 10 10 9 10 10 9
14 14 14 14 13 13 13 13 12 12 12 12 11 11 11 11 10 10 10 10 10 10 10 10 10 10 10 10 10 10 9 9 9 9 9 9 9 9 9 9 9 9 9
14 14 13 13 13 13 13 12 12 12 12 11 11 11 10 10 10 10 10 10 10 9 9 9 9 9 9 9 9 9 9 9 9 9 9 9 9 9 9 9 9 9 9
13 13 13 13 12 12 12 12 12 12 11 11 10 10 10 10 10 9 9 9 9 9 9 9 9 9 9 9 9 9 9 9 9 9 9 9 9 8 8 8 8 8 8
13 12 12 12 12 12 11 11 11 11 11 10 10 10 10 9 9 9 9 9 9 8 8 8 8 8 8 8 8 8 8 8 8 8 8 8 8 8 8 8 8 7 7
12 12 12 11 11 11 11 11 11 10 10 10 9 9 9 9 9 9 9 8 8 8 8 8 8 8 8 8 8 8 8 8 7 7 7 7 7 7 7 7 7 7 7
11 11 11 11 11 10 10 10 10 10 9 9 9 9 9 9 8 8 8 8 8 8 8 7 7 7 7 7 7 7 7 7 7 7 7 7 7 7 7 7 7 6 6
11 10 10 10 10 10 10 10 9 9 9 9 9 8 8 8 8 8 8 8 7 7 7 7 7 7 7 7 7 7 7 6 6 6 6 6 6 6 6 6 6 6 6
Wind_Speed
3 2 2 2 3 3 3 3 4 3 3 2 2 2 2 2 2 2 4 4 4 4 4 3 3 3 3 2 3 3 3 3 2 3 4 4 4 4 3 4 4 4 5
2 2 2 3 3 4 3 3 3 3 3 2 2 2 2 1 1 2 3 4 4 4 3 3 2 2 2 3 2 2 2 1 2 2 2 2 4 3 4 3 3 4 4
6 4 3 3 3 3 4 4 4 4 3 3 3 3 3 3 3 3 2 2 3 3 3 3 3 2 2 2 2 2 2 2 1 1 3 2 1 2 3 3 3 3 2
6 5 4 4 4 4 3 3 3 3 3 4 4 4 3 2 1 0 0 1 2 3 3 3 2 2 1 1 1 2 1 2 1 1 1 1 3 2 1 2 2 3 2
7 6 6 6 4 3 3 3 3 3 3 3 5 5 3 2 1 1 1 1 2 2 2 2 2 1 1 1 1 1 1 1 2 1 1 1 1 1 2 1 2 3 2
6 6 5 4 3 3 3 3 4 2 2 3 3 4 4 3 2 1 1 0 1 1 1 1 1 1 1 1 1 1 1 1 1 1 2 2 2 2 2 2 1 2 2
7 6 5 5 4 4 4 4 4 3 3 3 3 4 5 5 4 3 2 1 0 1 1 0 0 0 1 1 1 1 1 1 1 2 1 1 1 2 2 2 1 1 2
6 6 7 6 6 6 5 5 5 4 4 4 4 3 4 3 3 3 3 3 2 2 2 1 1 1 1 1 1 1 1 1 1 1 1 1 1 2 2 3 2 0 1
7 7 6 5 5 5 6 6 6 5 4 4 4 4 3 3 4 3 3 3 2 2 1 1 1 1 1 1 1 1 1 1 1 1 1 1 1 1 2 2 2 3 1
5 5 5 5 5 5 5 5 5 5 4 3 4 4 4 4 3 3 3 3 2 2 1 1 2 1 1 1 1 1 1 1 1 1 1 1 1 1 1 2 1 2 2
6 6 5 5 4 3 4 4 4 3 2 3 3 3 3 3 3 3 3 3 2 2 2 2 2 2 2 2 2 2 1 1 1 0 1 1 1 1 1 1 1 1 1
4 4 4 3 3 3 3 3 3 3 3 3 2 2 2 2 3 2 2 2 2 2 2 2 2 2 2 2 3 3 2 2 2 1 1 1 1 1 1 2 2 2 2
4 3 3 4 4 4 3 3 3 3 3 3 3 2 2 2 3 2 2 2 2 2 2 2 2 3 3 3 3 3 3 3 2 2 2 2 1 1 1 2 2 2 1
4 4 4 4 4 4 4 3 3 3 3 3 3 3 3 3 3 2 2 2 2 2 2 2 2 2 2 2 3 3 3 2 2 2 2 2 2 3 2 2 2 2 2
4 5 5 5 4 4 3 3 3 3 4 4 3 3 3 2 2 2 1 1 1 1 2 1 1 1 2 2 3 3 3 2 2 2 2 2 2 2 2 2 3 3 3
6 5 5 5 6 6 5 5 4 4 4 4 4 3 2 2 2 2 2 2 1 1 0 1 1 1 1 2 3 3 3 3 2 2 2 2 2 2 2 2 3 4 4
5 5 5 6 7 7 6 6 5 4 4 4 4 3 3 3 3 3 2 2 2 1 1 1 1 1 2 2 2 3 2 2 2 2 2 2 1 1 1 2 2 2 2
4 4 4 5 5 5 5 4 4 5 5 4 4 3 3 3 2 2 2 2 1 1 1 1 1 1 2 2 2 2 2 2 1 2 2 2 1 1 2 3 2 1 1
4 4 4 4 3 3 4 4 4 4 4 4 4 4 4 4 3 3 3 2 2 1 1 2 2 2 2 2 1 1 2 1 1 1 1 1 2 1 2 3 2 1 1
2 2 2 2 2 2 4 4 4 4 4 5 5 4 4 4 4 4 3 2 2 2 1 1 2 2 2 2 1 1 2 1 1 1 1 1 1 1 1 3 3 3 2
2 2 2 2 3 3 4 4 4 4 5 4 3 3 3 3 3 2 2 2 2 2 1 1 2 2 2 2 2 2 2 2 2 1 1 1 1 1 1 2 3 4 2
1 2 2 2 2 3 4 4 4 4 3 3 3 3 3 3 2 3 2 2 2 2 2 1 1 2 2 2 2 3 3 3 3 3 2 2 1 1 1 1 2 1 2
2 2 2 2 1 2 4 5 4 3 3 3 3 2 2 2 2 3 3 2 2 2 2 2 2 2 2 2 3 3 4 4 3 2 2 2 1 0 0 1 1 2 2
2 2 3 2 2 2 3 4 3 4 4 3 3 2 2 1 1 2 3 3 3 3 3 2 3 2 2 2 2 2 2 2 2 1 1 0 1 1 1 1 0 1 2
1 2 3 3 4 3 3 3 3 4 4 4 3 2 2 2 1 1 2 3 4 4 4 4 4 3 3 4 4 3 2 3 3 2 1 1 1 0 0 0 0 1 1
2 2 2 3 3 2 2 2 3 4 5 4 3 3 2 2 2 1 1 2 3 3 4 4 3 3 4 3 3 3 3 3 4 3 1 1 1 2 2 2 1 1 1
Wind_Direction
222 181 172 162 143 137 135 131 121 116 111 96 96 91 72 39 30 40 58 74 87 95 99 87 85 92 99 107 99 87 74 58 55 60 36 20 26 35 29 26 30 26 31
197 187 168 152 157 162 158 146 140 138 137 130 126 119 119 89 50 29 48 60 77 90 103 94 83 91 99 99 105 105 96 74 70 89 75 23 4 7 15 17 28 19 26
198 198 185 179 166 169 171 168 164 154 145 124 99 81 66 52 40 28 23 26 67 88 97 107 107 99 110 138 145 138 132 143 80 96 120 122 223 326 345 4 15 11 19
194 189 187 186 189 195 174 155 153 149 145 139 137 133 130 131 202 227 359 23 56 76 93 107 111 115 110 126 166 147 144 139 149 78 80 147 162 154 334 335 350 359 6
193 193 196 195 192 180 163 151 139 139 144 152 157 147 140 151 126 88 72 38 25 44 64 100 116 117 127 150 119 113 134 143 155 160 135 100 82 120 154 276 328 345 342
197 199 198 184 176 165 155 151 151 159 157 156 158 161 160 154 134 120 111 23 3 6 22 73 134 151 136 149 151 137 137 156 152 156 154 157 159 175 163 192 266 301 310
191 194 190 187 185 182 178 171 167 183 185 174 176 185 183 175 175 180 185 183 208 260 268 201 199 197 189 173 148 135 144 162 160 178 196 191 195 165 159 156 194 267 305
193 198 201 194 194 194 186 182 183 194 196 194 199 195 189 187 196 194 191 196 207 224 232 212 214 225 194 180 148 136 185 152 177 198 190 194 216 177 169 165 156 161 312
194 200 201 196 196 197 194 191 189 194 198 202 201 198 193 194 206 205 194 203 214 218 201 204 221 226 196 176 148 163 211 162 182 217 205 221 246 193 189 172 167 162 204
197 199 195 195 199 200 197 189 189 197 201 198 205 204 202 203 202 195 197 201 210 209 182 197 216 220 206 162 150 181 210 159 208 203 190 233 249 199 182 178 176 174 177
196 199 199 196 189 179 175 177 181 182 192 202 204 200 203 198 188 192 206 206 196 193 202 209 205 208 212 193 175 195 182 183 236 271 230 254 217 176 177 162 154 158 151
194 192 189 175 169 170 169 173 176 179 194 195 184 191 188 178 183 198 210 202 201 198 209 206 198 210 213 199 190 197 188 197 225 249 237 282 232 188 192 173 177 183 178
183 174 170 172 181 183 181 185 187 190 188 172 167 172 175 171 189 202 203 197 204 211 208 187 200 220 220 208 205 193 191 200 223 237 226 248 217 225 227 191 188 192 176
185 181 185 192 193 190 188 191 205 195 180 172 173 187 201 198 202 201 192 201 194 198 211 202 208 217 215 205 200 187 187 198 224 242 237 236 222 224 216 201 197 176 152
197 196 197 199 198 194 195 197 207 202 183 173 181 206 211 198 195 193 195 190 174 197 220 199 200 195 204 203 186 186 186 191 222 255 260 248 242 233 207 197 187 169 162
209 208 204 200 203 203 203 202 207 205 183 176 193 205 197 192 197 198 184 168 180 209 220 222 198 210 237 215 190 179 184 190 207 244 270 271 271 265 211 184 165 161 169
210 206 207 210 211 208 201 201 203 189 180 185 191 192 189 192 204 197 181 187 199 175 177 248 220 240 250 239 215 189 169 184 217 234 255 279 288 277 202 182 153 162 169
209 213 212 215 213 203 200 196 185 179 183 189 192 193 190 195 197 182 190 196 181 181 206 240 229 242 261 250 239 189 160 175 221 237 233 231 260 220 165 160 151 168 217
208 211 207 204 195 189 185 167 173 178 182 195 201 199 192 188 186 192 198 190 173 189 216 231 225 235 269 260 260 154 160 176 236 254 246 223 236 253 155 147 158 183 272
195 190 178 153 171 188 161 156 176 182 201 208 207 199 187 183 192 204 204 192 178 193 195 240 242 231 255 270 249 158 164 182 239 277 290 251 246 267 159 168 171 194 238
191 170 161 177 205 181 159 168 182 205 215 204 192 183 183 187 189 189 187 178 175 173 193 231 262 259 259 259 217 187 176 192 206 232 256 257 240 242 231 195 189 210 193
174 168 171 201 210 173 166 180 205 216 197 172 171 180 185 189 174 161 168 165 167 182 209 225 273 279 276 257 231 215 210 194 191 223 236 238 225 214 222 210 214 178 124
183 177 176 198 229 196 177 189 217 193 167 156 175 191 187 179 171 171 175 173 181 194 217 220 241 271 281 279 267 245 229 211 199 215 216 220 214 202 214 262 187 137 134
199 180 167 188 228 227 207 204 192 170 157 167 184 187 180 184 177 181 184 187 197 205 214 222 236 252 264 262 252 238 233 216 211 222 221 112 80 70 53 35 90 130 164
223 187 192 211 227 221 212 197 177 162 163 174 189 196 195 194 199 212 218 212 218 210 213 221 220 219 241 252 230 195 197 195 188 147 93 70 60 54 14 0 49 132 134
209 202 213 219 232 219 217 204 178 165 164 177 194 200 199 199 197 209 285 266 233 239 232 223 218 232 239 260 239 212 198 182 161 136 144 197 204 218 224 229 230 206 210
Height
1520 1522 1523 1524 1525 1526 1527 1527 1528 1529 1529 1530 1530 1530 1531 1531 1532 1532 1532 1533 1533 1533 1532 1532 1532 1532 1532 1532 1532 1532 1532 1532 1532 1532 1532 1533 1533 1534 1534 1535 1535 1535 1535
1519 1520 1522 1523 1524 1525 1526 1527 1528 1528 1529 1530 1530 1531 1531 1532 1532 1533 1533 1533 1533 1533 1533 1533 1533 1533 1532 1532 1532 1532 1532 1533 1533 1534 1533 1534 1535 1534 1535 1535 1535 1535 1535
1517 1518 1520 1521 1523 1524 1525 1526 1527 1528 1529 1530 1530 1531 1531 1532 1532 1532 1533 1533 1533 1533 1533 1533 1533 1533 1533 1533 1533 1533 1533 1533 1534 1534 1535 1534 1535 1535 1535 1535 1535 1535 1535
1515 1517 1518 1520 1521 1523 1524 1526 1527 1528 1529 1529 1530 1530 1530 1531 1531 1532 1533 1533 1533 1533 1533 1533 1533 1533 1533 1533 1533 1533 1533 1533 1534 1534 1534 1535 1535 1535 1535 1535 1535 1535 1535
1513 1515 1517 1518 1520 1522 1524 1525 1526 1527 1528 1529 1529 1529 1530 1531 1531 1532 1533 1533 1533 1533 1533 1533 1533 1533 1533 1533 1533 1533 1533 1533 1533 1534 1534 1534 1534 1535 1535 1534 1534 1534 1534
1511 1513 1516 1517 1519 1521 1522 1524 1525 1526 1527 1528 1528 1529 1529 1530 1530 1531 1531 1532 1532 1533 1533 1533 1532 1532 1532 1532 1533 1533 1533 1533 1533 1533 1533 1533 1533 1534 1534 1534 1533 1533 1534
1509 1512 1514 1515 1517 1519 1520 1522 1523 1524 1525 1526 1527 1527 1528 1529 1529 1530 1530 1531 1531 1531 1532 1532 1532 1532 1532 1532 1532 1532 1532 1532 1532 1532 1532 1532 1532 1533 1533 1533 1533 1533 1533
1507 1509 1511 1513 1515 1517 1518 1520 1521 1522 1523 1524 1525 1526 1526 1527 1528 1528 1529 1529 1530 1530 1531 1531 1531 1531 1531 1531 1531 1531 1531 1531 1531 1531 1531 1531 1531 1531 1531 1532 1532 1531 1532
1505 1507 1509 1511 1513 1514 1516 1517 1519 1520 1521 1522 1523 1523 1524 1525 1526 1527 1527 1528 1528 1529 1529 1529 1530 1530 1530 1530 1530 1530 1530 1530 1530 1530 1530 1529 1529 1529 1530 1530 1531 1531 1530
1503 1505 1507 1509 1511 1512 1514 1515 1517 1518 1519 1520 1520 1521 1522 1523 1524 1524 1525 1526 1526 1527 1527 1527 1528 1528 1528 1528 1528 1528 1528 1528 1528 1528 1528 1528 1528 1528 1528 1528 1529 1529 1529
1501 1503 1505 1507 1509 1510 1511 1513 1514 1515 1516 1517 1518 1519 1519 1520 1521 1522 1523 1523 1524 1525 1525 1525 1525 1526 1526 1526 1526 1526 1526 1526 1526 1526 1526 1526 1526 1526 1526 1526 1527 1527 1527
1499 1501 1503 1505 1506 1508 1509 1510 1512 1513 1514 1515 1515 1516 1517 1518 1519 1519 1520 1521 1521 1522 1523 1523 1523 1524 1524 1524 1524 1524 1524 1524 1524 1524 1524 1524 1524 1524 1524 1524 1524 1524 1525
1498 1499 1501 1502 1504 1505 1507 1508 1510 1511 1512 1513 1513 1514 1514 1515 1516 1517 1517 1518 1519 1519 1520 1520 1520 1521 1521 1522 1522 1522 1522 1521 1521 1521 1521 1521 1521 1521 1521 1521 1521 1522 1522
1496 1497 1499 1500 1502 1503 1505 1506 1507 1509 1509 1510 1511 1511 1511 1512 1513 1514 1514 1515 1515 1516 1517 1517 1518 1518 1518 1519 1519 1519 1519 1519 1519 1519 1519 1518 1518 1518 1518 1518 1518 1519 1519
1494 1495 1496 1498 1499 1501 1502 1504 1505 1506 1507 1507 1508 1508 1509 1510 1510 1511 1511 1512 1512 1513 1513 1514 1514 1515 1515 1515 1516 1516 1516 1516 1516 1516 1516 1515 1515 1515 1515 1515 1515 1516 1516
1491 1493 1494 1495 1496 1498 1499 1500 1501 1503 1503 1504 1505 1506 1506 1507 1507 1508 1508 1509 1509 1510 1510 1510 1511 1511 1511 1512 1512 1512 1513 1513 1513 1512 1512 1512 1512 1512 1512 1512 1513 1513 1513
1489 1490 1491 1492 1493 1494 1495 1496 1498 1499 1500 1501 1502 1503 1503 1503 1504 1505 1505 1505 1506 1506 1507 1507 1507 1507 1508 1508 1509 1509 1509 1509 1509 1509 1509 1509 1509 1509 1509 1509 1510 1510 1510
1487 1488 1489 1489 1490 1491 1492 1493 1494 1495 1496 1497 1498 1499 1500 1500 1501 1501 1502 1502 1503 1503 1503 1503 1504 1504 1504 1505 1505 1505 1506 1506 1506 1506 1506 1506 1506 1506 1506 1506 1506 1507 1507
1485 1486 1486 1487 1488 1488 1489 1490 1491 1492 1493 1494 1494 1495 1496 1497 1497 1498 1498 1499 1499 1499 1500 1500 1500 1501 1501 1502 1502 1502 1502 1502 1502 1502 1502 1502 1503 1503 1503 1503 1503 1503 1504
1483 1484 1484 1485 1485 1486 1486 1487 1488 1488 1489 1490 1491 1492 1493 1493 1494 1494 1495 1495 1496 1496 1496 1497 1497 1497 1498 1498 1498 1499 1499 1498 1499 1499 1499 1499 1499 1500 1500 1499 1499 1500 1501
1481 1481 1482 1482 1483 1483 1484 1484 1485 1485 1486 1487 1488 1489 1489 1490 1491 1491 1492 1492 1492 1492 1493 1493 1493 1494 1494 1494 1494 1495 1495 1495 1495 1495 1495 1495 1496 1496 1496 1496 1496 1497 1498
1477 1478 1478 1479 1479 1480 1481 1481 1482 1483 1483 1484 1485 1486 1486 1487 1487 1488 1488 1489 1489 1489 1489 1489 1489 1490 1490 1490 1490 1491 1491 1491 1491 1491 1491 1492 1492 1493 1493 1493 1493 1494 1494
1475 1475 1476 1475 1476 1477 1477 1478 1479 1480 1480 1481 1482 1482 1483 1483 1484 1484 1485 1485 1485 1486 1485 1486 1485 1485 1486 1486 1487 1487 1487 1487 1487 1487 1488 1488 1489 1489 1489 1489 1490 1490 1490
1472 1472 1472 1472 1473 1473 1474 1475 1475 1476 1477 1477 1478 1479 1480 1480 1481 1481 1481 1482 1482 1482 1482 1482 1482 1482 1482 1483 1483 1483 1483 1483 1483 1484 1484 1484 1485 1485 1485 1485 1486 1486 1487
1469 1469 1469 1469 1469 1470 1471 1472 1472 1472 1473 1474 1475 1476 1476 1477 1477 1478 1478 1478 1478 1479 1479 1479 1479 1479 1479 1479 1480 1479 1479 1480 1480 1480 1480 1480 1480 1481 1481 1482 1482 1482 1483
1466 1466 1466 1466 1466 1467 1467 1468 1469 1469 1469 1470 1471 1472 1473 1473 1474 1474 1474 1474 1475 1475 1475 1476 1476 1475 1476 1476 1476 1476 1476 1476 1477 1477 1476 1476 1476 1477 1477 1478 1478 1478 1479